Keahole Point, HI

5:44 PM HST on November 17, 2017 (GMT -1000)
Kona International At Keahole

Weather History for PHKO - May, 2014

Change the Weather History Date:

Saturday, May 3, 2014

  Actual Average Record
Temperature  
Mean Temperature 78 °F -  
Max Temperature 82 °F 80 °F 89 °F (1986)
Min Temperature 73 °F 69 °F 66 °F (1991)
Cooling Degree Days 12    
Growing Degree Days 28 (Base 50)    
Moisture  
Dew Point 68 °F    
Average Humidity 72    
Maximum Humidity 76    
Minimum Humidity 62    
Precipitation  
Precipitation 0.00 in - - ()
Sea Level Pressure  
Sea Level Pressure 30.02 in    
Wind  
Wind Speed 8 mph (SW)    
Max Wind Speed 14 mph    
Max Gust Speed -    
Visibility 10 miles    
Events      
Averages and records for this station are not official NWS values.
T = Trace of Precipitation, MM = Missing Value Source: NWS Daily Summary

Daily Weather History Graph

Daily Weather History Graph

Search for Another Location

Airport or City:

Trip Planner

Search our weather history database for the weather conditions in past years. The results will help you decide how hot, cold, wet, or windy it might be!

Date:

Astronomy

May. 03, 2014 Rise Set
Actual Time 5:54 AM HST 6:48 PM HST
Civil Twilight 5:30 AM HST 7:11 PM HST
Nautical Twilight 5:03 AM HST 7:38 PM HST
Astronomical Twilight 4:36 AM HST 8:06 PM HST
Moon 9:39 AM HST (5/3) 10:58 PM HST (5/3)
Length of Visible Light 13h 40m
Length of Day
12h 54m
Waxing Crescent, 21% of the Moon is Illuminated
May 3
Waxing Crescent
May 6
First Quarter
May 14
Full
May 21
Last Quarter
May 28
New

Hourly Weather History & Observations

Time (HST) Temp. Heat Index Dew Point Humidity Pressure Visibility Wind Dir Wind Speed Gust Speed Precip Events Conditions
12:53 AM 75.0 °F - 66.9 °F 76% 30.04 in 10.0 mi SE 10.4 mph - N/A   Clear
1:53 AM 75.0 °F - 66.9 °F 76% 30.03 in 10.0 mi SE 10.4 mph - N/A   Clear
2:53 AM 73.9 °F - 66.0 °F 76% 30.02 in 10.0 mi East 8.1 mph - N/A   Clear
3:53 AM 73.9 °F - 66.0 °F 76% 30.01 in 10.0 mi East 5.8 mph - N/A   Clear
4:53 AM 73.0 °F - 64.9 °F 76% 30.01 in 10.0 mi ESE 4.6 mph - N/A   Clear
5:53 AM 73.9 °F - 66.0 °F 76% 30.01 in 10.0 mi ESE 6.9 mph - N/A   Clear
6:53 AM 73.9 °F - 66.0 °F 76% 30.03 in 10.0 mi ENE 4.6 mph - N/A   Clear
7:53 AM 78.1 °F - 68.0 °F 71% 30.04 in 10.0 mi West 3.5 mph - N/A   Clear
8:53 AM 79.0 °F - 69.1 °F 72% 30.04 in 10.0 mi WSW 5.8 mph - N/A   Partly Cloudy
9:53 AM 80.1 °F 82.7 °F 68.0 °F 67% 30.05 in 10.0 mi WSW 10.4 mph - N/A   Clear
10:53 AM 82.0 °F 85.5 °F 69.1 °F 65% 30.05 in 10.0 mi West 8.1 mph - N/A   Clear
11:53 AM 82.0 °F 84.9 °F 68.0 °F 62% 30.04 in 10.0 mi West 9.2 mph - N/A   Scattered Clouds
12:53 PM 82.0 °F 85.5 °F 69.1 °F 65% 30.04 in 10.0 mi West 10.4 mph - N/A   Overcast
1:53 PM 82.9 °F 86.5 °F 69.1 °F 63% 30.02 in 10.0 mi West 9.2 mph - N/A   Clear
2:53 PM 82.0 °F 85.5 °F 69.1 °F 65% 29.99 in 10.0 mi WSW 9.2 mph - N/A   Clear
3:53 PM 82.0 °F 85.5 °F 69.1 °F 65% 29.99 in 10.0 mi WSW 8.1 mph - N/A   Clear
4:53 PM 81.0 °F 84.4 °F 70.0 °F 69% 29.98 in 10.0 mi SSW 10.4 mph - N/A   Clear
5:53 PM 80.1 °F 83.2 °F 70.0 °F 71% 29.98 in 10.0 mi South 13.8 mph - N/A   Clear
6:53 PM 79.0 °F - 70.0 °F 74% 30.00 in 10.0 mi South 12.7 mph - N/A   Partly Cloudy
7:53 PM 79.0 °F - 69.1 °F 72% 30.02 in 10.0 mi South 9.2 mph - N/A   Overcast
8:42 PM 78.8 °F - 69.8 °F 74% 30.03 in 10.0 mi South 5.8 mph - N/A   Overcast
8:50 PM 78.8 °F - 69.8 °F 74% 30.03 in 10.0 mi SSW 4.6 mph - N/A   Overcast
8:53 PM 78.1 °F - 69.1 °F 74% 30.04 in 10.0 mi SW 4.6 mph - N/A   Overcast
9:53 PM 78.1 °F - 69.1 °F 74% 30.05 in 9.0 mi NW 4.6 mph - N/A   Scattered Clouds
10:53 PM 78.1 °F - 69.1 °F 74% 30.04 in 10.0 mi WNW 8.1 mph - N/A   Partly Cloudy
11:53 PM 78.1 °F - 70.0 °F 76% 30.04 in 10.0 mi WNW 9.2 mph - N/A   Overcast